Time,TemperatureF,DewpointF,PressureIn,WindDirection,WindDirectionDegrees,WindSpeedMPH,WindSpeedGustMPH,Humidity,HourlyPrecipIn,Conditions,Clouds,dailyrainin,SolarRadiationWatts/m^2,SoftwareType,DateUTC
2013-01-24 00:13:00,17.5,6.0,30.18,East,80,1.0,3.0,61,0.00,,,0.00,0,weatherlink.com 1.10,2013-01-24 05:13:00,
2013-01-24 00:28:00,17.2,7.0,30.18,East,99,0.0,2.0,63,0.00,,,0.00,0,weatherlink.com 1.10,2013-01-24 05:28:00,
2013-01-24 00:43:00,17.0,7.0,30.17,East,99,0.0,1.0,66,0.00,,,0.00,0,weatherlink.com 1.10,2013-01-24 05:43:00,
2013-01-24 00:59:00,16.7,9.0,30.16,East,86,1.0,3.0,70,0.00,,,0.00,0,weatherlink.com 1.10,2013-01-24 05:59:00,
2013-01-24 01:14:00,16.2,9.0,30.16,East,86,0.0,2.0,74,0.00,,,0.00,0,weatherlink.com 1.10,2013-01-24 06:14:00,
2013-01-24 01:29:00,15.9,10.0,30.16,East,90,1.0,3.0,77,0.00,,,0.00,0,weatherlink.com 1.10,2013-01-24 06:29:00,
2013-01-24 01:45:00,15.7,10.0,30.16,East,101,0.0,2.0,79,0.00,,,0.00,0,weatherlink.com 1.10,2013-01-24 06:45:00,
2013-01-24 02:01:00,15.7,11.0,30.16,East,101,0.0,2.0,81,0.00,,,0.00,0,weatherlink.com 1.10,2013-01-24 07:01:00,
2013-01-24 02:16:00,15.6,11.0,30.15,East,101,0.0,2.0,82,0.00,,,0.00,0,weatherlink.com 1.10,2013-01-24 07:16:00,
2013-01-24 02:31:00,15.4,11.0,30.14,East,101,0.0,3.0,83,0.00,,,0.00,0,weatherlink.com 1.10,2013-01-24 07:31:00,
2013-01-24 02:45:00,15.2,11.0,30.15,East,101,0.0,2.0,83,0.00,,,0.00,0,weatherlink.com 1.10,2013-01-24 07:45:00,
2013-01-24 03:01:00,15.2,11.0,30.14,NNE,24,1.0,1.0,83,0.00,,,0.00,0,weatherlink.com 1.10,2013-01-24 08:01:00,
2013-01-24 03:16:00,15.2,11.0,30.15,NNE,33,0.0,2.0,83,0.00,,,0.00,0,weatherlink.com 1.10,2013-01-24 08:16:00,
2013-01-24 03:31:00,15.2,11.0,30.15,West,271,0.0,3.0,83,0.00,,,0.00,0,weatherlink.com 1.10,2013-01-24 08:31:00,
2013-01-24 03:46:00,15.1,11.0,30.15,East,88,0.0,3.0,83,0.00,,,0.00,0,weatherlink.com 1.10,2013-01-24 08:46:00,
2013-01-24 04:02:00,14.9,11.0,30.15,NNW,348,0.0,4.0,83,0.00,,,0.00,0,weatherlink.com 1.10,2013-01-24 09:02:00,
2013-01-24 04:16:00,14.8,11.0,30.15,NW,317,0.0,3.0,83,0.00,,,0.00,0,weatherlink.com 1.10,2013-01-24 09:16:00,
2013-01-24 04:31:00,14.8,11.0,30.15,WNW,289,0.0,2.0,84,0.00,,,0.00,0,weatherlink.com 1.10,2013-01-24 09:31:00,
2013-01-24 04:46:00,14.4,10.0,30.16,North,351,1.0,3.0,83,0.00,,,0.00,0,weatherlink.com 1.10,2013-01-24 09:46:00,
2013-01-24 05:03:00,14.3,10.0,30.16,East,94,0.0,3.0,82,0.00,,,0.00,0,weatherlink.com 1.10,2013-01-24 10:03:00,
2013-01-24 05:17:00,14.1,10.0,30.17,WNW,292,0.0,4.0,82,0.00,,,0.00,0,weatherlink.com 1.10,2013-01-24 10:17:00,
2013-01-24 05:33:00,14.0,10.0,30.18,WNW,283,1.0,3.0,82,0.00,,,0.00,0,weatherlink.com 1.10,2013-01-24 10:33:00,
2013-01-24 05:47:00,14.0,10.0,30.19,North,360,0.0,3.0,82,0.00,,,0.00,0,weatherlink.com 1.10,2013-01-24 10:47:00,
2013-01-24 06:03:00,14.0,10.0,30.19,WNW,294,1.0,2.0,82,0.00,,,0.00,0,weatherlink.com 1.10,2013-01-24 11:03:00,
2013-01-24 06:17:00,14.0,10.0,30.20,NW,310,0.0,4.0,82,0.00,,,0.00,0,weatherlink.com 1.10,2013-01-24 11:17:00,
2013-01-24 06:33:00,13.8,9.0,30.22,East,86,2.0,3.0,81,0.00,,,0.00,0,weatherlink.com 1.10,2013-01-24 11:33:00,
2013-01-24 06:48:00,13.6,9.0,30.22,WNW,286,0.0,3.0,81,0.00,,,0.00,0,weatherlink.com 1.10,2013-01-24 11:48:00,
2013-01-24 07:03:00,13.6,9.0,30.23,NNW,332,1.0,5.0,80,0.00,,,0.00,0,weatherlink.com 1.10,2013-01-24 12:03:00,
2013-01-24 07:18:00,13.6,9.0,30.24,West,279,0.0,3.0,80,0.00,,,0.00,0,weatherlink.com 1.10,2013-01-24 12:18:00,
2013-01-24 07:34:00,13.5,9.0,30.25,WNW,296,1.0,3.0,81,0.00,,,0.00,0,weatherlink.com 1.10,2013-01-24 12:34:00,
2013-01-24 07:49:00,13.1,8.0,30.26,WNW,285,1.0,4.0,80,0.00,,,0.00,11,weatherlink.com 1.10,2013-01-24 12:49:00,
2013-01-24 08:04:00,12.9,8.0,30.27,WNW,294,1.0,3.0,80,0.00,,,0.00,12,weatherlink.com 1.10,2013-01-24 13:04:00,
2013-01-24 08:19:00,13.1,8.0,30.28,West,277,1.0,4.0,80,0.00,,,0.00,19,weatherlink.com 1.10,2013-01-24 13:19:00,
2013-01-24 08:34:00,13.6,9.0,30.30,North,351,3.0,3.0,80,0.00,,,0.00,26,weatherlink.com 1.10,2013-01-24 13:34:00,
2013-01-24 08:49:00,14.1,9.0,30.30,West,277,3.0,9.0,79,0.00,,,0.00,28,weatherlink.com 1.10,2013-01-24 13:49:00,
2013-01-24 09:04:00,14.6,8.0,30.31,West,275,0.0,7.0,75,0.00,,,0.00,33,weatherlink.com 1.10,2013-01-24 14:04:00,
2013-01-24 09:21:00,14.9,8.0,30.32,WNW,290,0.0,8.0,73,0.00,,,0.00,60,weatherlink.com 1.10,2013-01-24 14:21:00,
2013-01-24 09:35:00,15.4,8.0,30.33,WNW,283,0.0,8.0,71,0.00,,,0.00,91,weatherlink.com 1.10,2013-01-24 14:35:00,
2013-01-24 09:51:00,16.4,8.0,30.33,West,281,0.0,7.0,68,0.00,,,0.00,130,weatherlink.com 1.10,2013-01-24 14:51:00,
2013-01-24 10:05:00,16.7,8.0,30.34,WNW,302,2.0,9.0,69,0.00,,,0.00,91,weatherlink.com 1.10,2013-01-24 15:05:00,
2013-01-24 10:21:00,17.5,8.0,30.35,NW,305,5.0,9.0,66,0.00,,,0.00,102,weatherlink.com 1.10,2013-01-24 15:21:00,
2013-01-24 10:36:00,17.8,7.0,30.35,WNW,293,6.0,8.0,64,0.00,,,0.00,109,weatherlink.com 1.10,2013-01-24 15:36:00,
2013-01-24 10:51:00,18.8,9.0,30.36,WNW,293,3.0,7.0,65,0.00,,,0.00,120,weatherlink.com 1.10,2013-01-24 15:51:00,
2013-01-24 11:06:00,18.6,8.0,30.38,NW,323,5.0,7.0,63,0.00,,,0.00,120,weatherlink.com 1.10,2013-01-24 16:06:00,
2013-01-24 11:22:00,19.9,8.0,30.38,NW,325,1.0,8.0,60,0.00,,,0.00,174,weatherlink.com 1.10,2013-01-24 16:22:00,
2013-01-24 11:36:00,19.5,6.0,30.38,WNW,286,3.0,11.0,57,0.00,,,0.00,318,weatherlink.com 1.10,2013-01-24 16:36:00,
2013-01-24 11:51:00,20.5,7.0,30.38,ENE,57,2.0,11.0,57,0.00,,,0.00,239,weatherlink.com 1.10,2013-01-24 16:51:00,
2013-01-24 12:06:00,20.0,6.0,30.39,WNW,291,6.0,14.0,54,0.00,,,0.00,132,weatherlink.com 1.10,2013-01-24 17:06:00,
2013-01-24 12:23:00,21.0,5.0,30.39,WNW,289,5.0,12.0,51,0.00,,,0.00,524,weatherlink.com 1.10,2013-01-24 17:23:00,
2013-01-24 12:37:00,20.6,6.0,30.39,West,280,4.0,15.0,53,0.00,,,0.00,118,weatherlink.com 1.10,2013-01-24 17:37:00,
2013-01-24 12:53:00,21.8,5.0,30.39,WNW,296,6.0,11.0,48,0.00,,,0.00,345,weatherlink.com 1.10,2013-01-24 17:53:00,
2013-01-24 13:08:00,21.0,3.0,30.39,NW,308,1.0,12.0,46,0.00,,,0.00,81,weatherlink.com 1.10,2013-01-24 18:08:00,
2013-01-24 13:23:00,21.1,0.0,30.39,WNW,299,5.0,14.0,40,0.00,,,0.00,51,weatherlink.com 1.10,2013-01-24 18:23:00,
2013-01-24 13:38:00,21.6,0.0,30.39,West,279,1.0,14.0,39,0.00,,,0.00,83,weatherlink.com 1.10,2013-01-24 18:38:00,
2013-01-24 13:53:00,21.9,-1.0,30.40,WNW,295,5.0,14.0,36,0.00,,,0.00,394,weatherlink.com 1.10,2013-01-24 18:53:00,
2013-01-24 14:09:00,22.7,-2.0,30.40,WNW,291,4.0,14.0,34,0.00,,,0.00,287,weatherlink.com 1.10,2013-01-24 19:09:00,
2013-01-24 14:23:00,22.1,-1.0,30.40,WNW,299,8.0,15.0,36,0.00,,,0.00,236,weatherlink.com 1.10,2013-01-24 19:23:00,
2013-01-24 14:39:00,22.5,-3.0,30.41,WNW,300,1.0,14.0,33,0.00,,,0.00,149,weatherlink.com 1.10,2013-01-24 19:39:00,
2013-01-24 14:54:00,22.4,-3.0,30.42,West,267,2.0,12.0,33,0.00,,,0.00,192,weatherlink.com 1.10,2013-01-24 19:54:00,
2013-01-24 15:10:00,22.5,-4.0,30.42,WNW,287,3.0,16.0,31,0.00,,,0.00,155,weatherlink.com 1.10,2013-01-24 20:10:00,
2013-01-24 15:24:00,22.2,-4.0,30.43,WNW,297,2.0,8.0,32,0.00,,,0.00,121,weatherlink.com 1.10,2013-01-24 20:24:00,
2013-01-24 15:39:00,22.7,-4.0,30.44,WNW,287,5.0,11.0,31,0.00,,,0.00,81,weatherlink.com 1.10,2013-01-24 20:39:00,
2013-01-24 15:54:00,22.9,-3.0,30.44,NW,324,5.0,9.0,32,0.00,,,0.00,176,weatherlink.com 1.10,2013-01-24 20:54:00,
2013-01-24 16:10:00,22.9,-4.0,30.45,WNW,297,3.0,10.0,31,0.00,,,0.00,37,weatherlink.com 1.10,2013-01-24 21:10:00,
2013-01-24 16:25:00,22.5,-3.0,30.45,WNW,283,6.0,9.0,32,0.00,,,0.00,63,weatherlink.com 1.10,2013-01-24 21:25:00,
2013-01-24 16:43:00,22.2,-2.0,30.46,West,276,2.0,9.0,34,0.00,,,0.00,19,weatherlink.com 1.10,2013-01-24 21:43:00,
2013-01-24 16:56:00,22.1,-1.0,30.46,WNW,296,1.0,13.0,37,0.00,,,0.00,14,weatherlink.com 1.10,2013-01-24 21:56:00,
2013-01-24 17:11:00,21.6,-2.0,30.47,WNW,287,1.0,10.0,35,0.00,,,0.00,5,weatherlink.com 1.10,2013-01-24 22:11:00,
2013-01-24 17:26:00,21.0,-1.0,30.47,WNW,291,1.0,5.0,38,0.00,,,0.00,0,weatherlink.com 1.10,2013-01-24 22:26:00,
2013-01-24 17:41:00,20.6,-1.0,30.49,WNW,292,2.0,4.0,38,0.00,,,0.00,0,weatherlink.com 1.10,2013-01-24 22:41:00,
2013-01-24 17:56:00,20.6,-1.0,30.49,WNW,291,2.0,8.0,39,0.00,,,0.00,0,weatherlink.com 1.10,2013-01-24 22:56:00,
2013-01-24 18:11:00,19.9,0.0,30.50,WNW,289,0.0,4.0,41,0.00,,,0.00,0,weatherlink.com 1.10,2013-01-24 23:11:00,
2013-01-24 18:27:00,19.1,0.0,30.51,WNW,290,0.0,2.0,43,0.00,,,0.00,0,weatherlink.com 1.10,2013-01-24 23:27:00,
2013-01-24 18:43:00,18.6,0.0,30.51,WNW,290,0.0,1.0,44,0.00,,,0.00,0,weatherlink.com 1.10,2013-01-24 23:43:00,
2013-01-24 18:57:00,18.0,0.0,30.51,North,360,1.0,2.0,45,0.00,,,0.00,0,weatherlink.com 1.10,2013-01-24 23:57:00,
2013-01-24 19:13:00,18.1,0.0,30.52,WNW,299,0.0,1.0,46,0.00,,,0.00,0,weatherlink.com 1.10,2013-01-25 00:13:00,
2013-01-24 19:28:00,17.7,0.0,30.53,WNW,298,1.0,2.0,46,0.00,,,0.00,0,weatherlink.com 1.10,2013-01-25 00:28:00,
2013-01-24 19:43:00,17.8,0.0,30.54,West,262,0.0,2.0,45,0.00,,,0.00,0,weatherlink.com 1.10,2013-01-25 00:43:00,
2013-01-24 19:58:00,17.2,0.0,30.54,West,262,0.0,1.0,46,0.00,,,0.00,0,weatherlink.com 1.10,2013-01-25 00:58:00,
2013-01-24 20:13:00,16.9,-1.0,30.53,West,262,0.0,1.0,46,0.00,,,0.00,0,weatherlink.com 1.10,2013-01-25 01:13:00,
2013-01-24 20:28:00,16.5,1.0,30.54,West,262,0.0,2.0,50,0.00,,,0.00,0,weatherlink.com 1.10,2013-01-25 01:28:00,
2013-01-24 20:44:00,15.9,-1.0,30.53,West,262,1.0,1.0,48,0.00,,,0.00,0,weatherlink.com 1.10,2013-01-25 01:44:00,
2013-01-24 20:59:00,15.6,0.0,30.53,West,262,0.0,1.0,50,0.00,,,0.00,0,weatherlink.com 1.10,2013-01-25 01:59:00,
2013-01-24 21:14:00,14.4,-1.0,30.53,West,262,0.0,0.0,51,0.00,,,0.00,0,weatherlink.com 1.10,2013-01-25 02:14:00,
2013-01-24 21:29:00,14.8,-1.0,30.53,West,262,0.0,1.0,50,0.00,,,0.00,0,weatherlink.com 1.10,2013-01-25 02:29:00,
2013-01-24 21:44:00,14.3,-1.0,30.53,West,262,0.0,0.0,51,0.00,,,0.00,0,weatherlink.com 1.10,2013-01-25 02:44:00,
2013-01-24 22:03:00,14.3,-2.0,30.53,West,262,1.0,1.0,48,0.00,,,0.00,0,weatherlink.com 1.10,2013-01-25 03:03:00,
2013-01-24 22:14:00,14.1,-1.0,30.53,West,262,0.0,2.0,51,0.00,,,0.00,0,weatherlink.com 1.10,2013-01-25 03:14:00,
2013-01-24 22:31:00,14.9,-3.0,30.53,West,262,0.0,1.0,46,0.00,,,0.00,0,weatherlink.com 1.10,2013-01-25 03:31:00,
2013-01-24 22:46:00,14.9,-2.0,30.53,West,262,1.0,1.0,48,0.00,,,0.00,0,weatherlink.com 1.10,2013-01-25 03:46:00,
2013-01-24 23:01:00,14.4,-4.0,30.54,West,262,0.0,2.0,45,0.00,,,0.00,0,weatherlink.com 1.10,2013-01-25 04:01:00,
2013-01-24 23:16:00,14.4,-4.0,30.54,West,262,1.0,1.0,45,0.00,,,0.00,0,weatherlink.com 1.10,2013-01-25 04:16:00,
2013-01-24 23:31:00,14.4,-4.0,30.54,West,262,0.0,0.0,44,0.00,,,0.00,0,weatherlink.com 1.10,2013-01-25 04:31:00,
2013-01-24 23:46:00,14.6,-4.0,30.55,West,262,0.0,1.0,44,0.00,,,0.00,0,weatherlink.com 1.10,2013-01-25 04:46:00,